User: anonymous   Login
Location: Voyageurs National Park
(48.5020°N, 92.9292°W)
Time: 07:14:39
(UTC-06:00)
Language:

Terra - Orbit

View from above orbital plane
View from above orbital plane
View from above satellite
View from above satellite

Ground track
Ground track

The orbit data is extracted from the following two-line orbital elements,

1 25994U 99068A   17347.08897598 -.00000072  00000-0 -58186-5 0  9991
2 25994  98.2140  59.5692 0000899  53.2962 306.8327 14.57119898956725
Epoch (UTC): 13 December 2017 02:08:07
Eccentricity: 0.0000899
inclination: 98.2140°
perigee height: 702 km
apogee height: 703 km
right ascension of ascending node: 59.5692°
argument of perigee: 53.2962°
revolutions per day: 14.57119898
mean anomaly at epoch: 306.8327°
orbit number at epoch: 95672

The dashed part of the orbit path shows where the satellite is in the earth's shadow,  

DLR